Weather in Novoblagodarnoye

Russia / Stavropol Krai     44°08′46″N   42°52′24″E
temp.,
°C
wind,
m/s
gust,
m/s
humid.,
%
clouds,
%
prec.,
mm/h
press.,
hPa
HPBL,
m
17 june, thu
thu1700:00+18e33900 0.0 100447
03:00+16e12913 0.0 100413
06:00+18w23890 0.0 1006112
09:00+21w8148672 0.0 1008905
12:00+22wnw9117675 0.2 10111164
15:00+22nw797456 1.0 10131188
18:00+20wnw69814 0.2 1014641
21:00+16wsw499251 0.2 1016260
18 june, fri
fri1800:00+17w378497 0.0 1017324
03:00+16wsw228382 0.0 101763
06:00+16w238263 0.0 1018129
09:00+20w226543 0.0 1017508
12:00+23n22580 0.0 10171020
15:00+24ne335823 0.0 10161287
18:00+22e357472 0.0 1016174
21:00+18ese22810 0.0 101712
19 june, sat
sat1900:00+17ese11860 0.0 101611
03:00+16ese22880 0.0 101615
06:00+18ese23850 0.0 1016117
09:00+23e697081 0.0 1015848
12:00+25e8116793 0.0 10131268
15:00+27ese81366100 0.0 10121517
18:00+25e610735 0.0 1011548
21:00+21e715630 0.0 1013563
20 june, sun
sun2000:00+17e49810 0.0 1013229
03:00+15e33902 0.0 101361
06:00+16e24870 0.0 1013155
09:00+21e35735 0.0 1012555
12:00+26e56660 0.0 1012803
15:00+28ese46580 0.0 1011982
18:00+27e24685 0.0 1010193
21:00+21e47700 0.0 1012147
21 june, mon
mon2100:00+17e35630 0.0 101279
03:00+16e33620 0.0 101249
06:00+17e24720 0.0 1011109
09:00+22e35600 0.0 1011453
12:00+26e67610 0.0 1011789
15:00+28e35565 0.0 1010878
18:00+26e346395 0.0 101081
21:00+20e355418 0.0 101263